Regional Weather Roundup
Issued by NWS Jackson, KY

Home | Current Version | Previous Version | Text Only | Print | Product List | Glossary Off
Versions: 1 2 3 4 5 6 7 8 9 10 11 12 13 14 15 16 17 18 19 20 21 22 23 24 25 26 27 28 29 30 31 32 33 34 35 36 37 38 39 40 41 42 43 44 45 46 47 48 49 50

000
ASUS43 KJKL 010119
RWRJKL

EAST KENTUCKY HOURLY WEATHER ROUNDUP
NATIONAL WEATHER SERVICE JACKSON KY
900 PM EDT FRI OCT 31 2014

NOTE: "FAIR" INDICATES FEW OR NO CLOUDS BELOW 12,000 FEET WITH
NO SIGNIFICANT WEATHER AND/OR OBSTRUCTIONS TO VISIBILITY.

* THESE REPORTS ARE NOT UNDER NWS QUALITY CONTROL AND MAY NOT
  REPORT WEATHER SUCH AS PRECIPITATION AND FOG.

KYZ079-080-083-085-087-088-110-112-115-119-120-010200
...EASTERN KENTUCKY...

CITY           SKY/WX    TMP DP  RH WIND       PRES   REMARKS
JACKSON        FLURRIES  35  33  92 VRB5      29.95S WCI  31
LONDON         LGT RAIN  37  33  85 W8        29.99S WCI  31
SOMERSET*      CLOUDY    36  34  93 NW7       30.04S WCI  30
MONTICELLO*    CLOUDY    38  34  85 NW13G18   30.06R FOG     WCI  30
MIDDLESBORO*   DRIZZLE   37  33  85 N6        29.99S WCI  32
HARLAN APT*    CLOUDY    36  34  93 W7        29.96S WCI  30
HAZARD APT*    RAIN      36  36 100 W5        29.96  WCI  32
BLACK MTN*       N/A     28  28 100 N12         N/A  WCI  18
PIKEVILLE APT* DRIZZLE   36  36 100 W12       29.90R WCI  27
BIG SANDY*     LGT RAIN  38  37  94 NW10      29.91R WCI  31
MOREHEAD APT*  LGT RAIN  37  36  93 W8        29.97S WCI  31
ASHLAND*       MOCLDY    41  36  81 NW5       29.90S
$$

KYZ035-036-041-042-044-050-067-078-099-010200
...CENTRAL KENTUCKY...

CITY           SKY/WX    TMP DP  RH WIND       PRES   REMARKS
MT STERLING*   CLOUDY    37  36  93 NW10      29.98S WCI  30
FLEMING/MASON* DRIZZLE   37  36  93 W9G16     29.96S WCI  31
DANVILLE*      CLOUDY    36  34  93 NW8       30.02S WCI  29
RICHMOND*      CLOUDY    37  34  87 W10       29.99S WCI  30
LEXINGTON      LGT RAIN  39  34  82 NW9       29.99S WCI  33
FRANKFORT      CLOUDY    37  32  82 NW8       30.00R WCI  31
$$

KYZ091>093-OHZ055-061-077-WVZ005-015-034-035-042-010200
...SOUTHERN OHIO/WEST VIRGINIA...

CITY           SKY/WX    TMP DP  RH WIND       PRES   REMARKS
COVINGTON      RAIN      37  36  93 NW14      29.97S FOG     WCI  29
COLUMBUS       LGT RAIN  41  39  93 N10       29.90R
DAYTON         LGT RAIN  38  35  89 N14G30    29.99R WCI  30
WILMINGTON     LGT RAIN  39  36  89 NW12G23   29.94R WCI  32
HUNTINGTON     LGT RAIN  39  37  92 NW8G17    29.90R WCI  33
CHARLESTON     LGT RAIN  43  41  93 CALM      29.87S FOG
PINEVILLE*     MIX PCPN  42  42 100 MISG      29.90S
BECKLEY        LGT RAIN  38  35  89 N3        29.83S
BLUEFIELD      LGT RAIN  38  34  85 NW5       29.83S WCI  34
$$

VAZ002-007-008-TNZ017-027-036-066-071-010200
...SOUTHWEST VIRGINIA/EAST TENNESSEE...

CITY           SKY/WX    TMP DP  RH WIND       PRES   REMARKS
WISE*          LGT RAIN  36  34  93 NW12      29.88R WCI  27
JONESVILLE*    CLOUDY    37  32  81 NW7G22    29.96R WCI  32
ABINGDON*      RAIN      43  40  91 NW5       29.84S
BRISTOL        LGT RAIN  44  42  93 W5        29.85F
KNOXVILLE      LGT RAIN  42  34  73 NW10      29.98R
OAK RIDGE      CLOUDY    41  33  73 VRB5G21   30.02R
CROSSVILLE     CLOUDY    36  29  75 NW15G23   30.01S WCI  27
NASHVILLE      MOCLDY    42  27  55 NW14G24   30.15R
$$

...KEY TO REMARKS...
VSB - VISIBILITY IN MILES
WCI - WIND CHILL INDEX
HX  - HEAT INDEX

$$



USA.gov is the U.S. government's official web portal to all federal, state and local government web resources and services.